Weather Roundup
Issued by NWS Chicago, IL

Home | Current Version | Previous Version | Text Only | Print | Product List | Glossary Off
Versions: 1 2 3 4 5 6 7 8 9 10 11 12 13 14 15 16 17 18 19 20 21 22 23 24 25 26 27 28 29 30 31 32 33 34 35 36 37 38 39 40 41 42 43 44 45 46 47 48 49 50

000
NZUS59 KLOT 200259
HRRLOT

CHICAGO AREA WEATHER ROUNDUP
NATIONAL WEATHER SERVICE CHICAGO/ROMEOVILLE IL
1000 PM CDT THU OCT 19 2017

NOTE: "FAIR" INDICATES FEW OR NO CLOUDS BELOW 12,000 FEET WITH NO
SIGNIFICANT WEATHER AND/OR OBSTRUCTIONS TO VISIBILITY.

* THESE STATIONS ARE NOT UNDER NWS QUALITY CONTROL. THEY ALSO MAY NOT
  REPORT WEATHER SUCH AS PRECIPITATION OR FOG.

ILZ005-006-012>014-019>023-200400-
NORTHEAST ILLINOIS

CITY           SKY/WX    TMP DP  RH WIND       PRES   REMARKS
OHARE          MOCLDY    54  38  54 S6        30.15F
MIDWAY         NOT AVBL
AURORA         NOT AVBL
WAUKEGAN       NOT AVBL
DUPAGE AIRPORT NOT AVBL
WHEELING       NOT AVBL
NORTHERLY ISL    N/A     57  50  77 SE2         N/A
$$

WIZ051-052-058>065-066-070>072-200400-
SOUTHEAST WISCONSIN

CITY           SKY/WX    TMP DP  RH WIND       PRES   REMARKS
MILWAUKEE      NOT AVBL
$$

INZ001>003-010>013-019-020-200400-
NORTHWEST INDIANA

CITY           SKY/WX    TMP DP  RH WIND       PRES   REMARKS
GARY*          PTCLDY    46  45  93 SE5       30.17F
MICHIGAN CITY* NOT AVBL
RENSSELAER*    NOT AVBL
$$

LMZ740>746-200400-
SOUTHERN LAKE MICHIGAN

STATION/POSITION TIME  SKY/WX   TEMP WIND        PRES    VSBY
                                AIR  DIR/SP/G
                 (UTC)          (F)  (DEG/KT/KT) (MB)    (MI)
HARRISON CRIB    0230            61  160/  8/  9   N/A
BURNHAM HARBOR   0245            57  130/  2/  5   N/A
CALUMET HARBOR   0230            56  180/  1/  2 1020.8F
BURNS HARBOR     0240            63  150/  6/  7 1022.0S
MICHIGAN CITY    0230            54  130/  7/  7   N/A
$$

ABBREVIATIONS USED IN REMARKS
   TC - TEMPERATURE IN CELSIUS
  WCI - WIND CHILL INDEX
   HX - HEAT INDEX
  VSB - VISIBILITY
$$



USA.gov is the U.S. government's official web portal to all federal, state and local government web resources and services.